#�ϑ�����,���ϕ���,���ϕ���,�ő啗��,�ő啗����������,�ő�u�ԕ���,�ő�u�ԕ�����������
#(�N����),(m/s)   ,(16����),(m/s)   ,(16����)        ,(m/s)       ,(16����)            
2014/2/18 0:01,4,1,4,1,9.2,1
2014/2/18 0:02,3.8,1,4,1,4.9,1
2014/2/18 0:03,3.5,2,3.9,1,2.6,7
2014/2/18 0:04,3.3,2,3.5,1,1.9,7
2014/2/18 0:05,3.1,1,3.3,1,4.1,1
2014/2/18 0:06,3.2,1,3.2,1,6.5,16
2014/2/18 0:07,3.3,1,3.3,1,4.9,2
2014/2/18 0:08,3,1,3.2,1,3.5,3
2014/2/18 0:09,2.8,2,2.9,1,3.1,6
2014/2/18 0:10,2.5,2,2.8,1,6.4,3
2014/2/18 0:11,2.3,2,2.5,1,6.9,3
2014/2/18 0:12,2.4,2,2.4,2,5.5,15
2014/2/18 0:13,2.5,2,2.5,2,5.1,16
2014/2/18 0:14,2.6,2,2.6,2,3.9,16
2014/2/18 0:15,2.6,2,2.7,1,3.8,3
2014/2/18 0:16,2.4,2,2.6,1,3.2,2
2014/2/18 0:17,2.3,2,2.4,1,4.5,3
2014/2/18 0:18,2.5,2,2.5,1,5,3
2014/2/18 0:19,2.7,2,2.7,2,3.9,3
2014/2/18 0:20,2.8,2,2.8,2,6.2,2
2014/2/18 0:21,2.7,2,2.8,2,5.5,2
2014/2/18 0:22,2.6,2,2.7,2,3.6,3
2014/2/18 0:23,2.4,2,2.5,2,2.1,16
2014/2/18 0:24,2.3,2,2.4,2,2.4,16
2014/2/18 0:25,2.5,2,2.5,2,7.4,16
2014/2/18 0:26,3,2,3,2,8.9,15
2014/2/18 0:27,3.1,2,3.1,2,7.9,16
2014/2/18 0:28,3,2,3.1,2,5.4,5
2014/2/18 0:29,2.8,2,3,2,3.6,16
2014/2/18 0:30,2.8,2,2.8,2,5,4
2014/2/18 0:31,2.8,2,2.8,2,6.9,1
2014/2/18 0:32,3.1,2,3.1,2,7,2
2014/2/18 0:33,3.5,2,3.5,2,8.9,3
2014/2/18 0:34,3.8,2,3.8,2,6.3,3
2014/2/18 0:35,3.7,3,3.8,2,4.4,6
2014/2/18 0:36,3.2,3,3.6,2,2.2,4
2014/2/18 0:37,3,3,3.1,2,3.6,2
2014/2/18 0:38,3,3,3,2,6.3,15
2014/2/18 0:39,3.4,2,3.4,2,8.7,15
2014/2/18 0:40,3.5,2,3.5,2,6.7,15
2014/2/18 0:41,3.5,2,3.5,2,4.8,1
2014/2/18 0:42,3.2,2,3.4,2,2,16
2014/2/18 0:43,2.7,2,3.2,2,1.5,11
2014/2/18 0:44,2.4,2,2.7,2,1,9
2014/2/18 0:45,2.2,2,2.4,3,1.3,5
2014/2/18 0:46,2.1,2,2.2,2,1,5
2014/2/18 0:47,2.2,3,2.2,2,3.1,8
2014/2/18 0:48,2.1,5,2.2,2,4.2,10
2014/2/18 0:49,1.7,6,2,2,2.2,8
2014/2/18 0:50,1.3,7,1.6,2,2.1,16
2014/2/18 0:51,1.1,7,1.3,2,2.7,14
2014/2/18 0:52,1.1,8,1.1,2,2.9,14
2014/2/18 0:53,1.2,8,1.2,2,2.1,8
2014/2/18 0:54,1.3,8,1.3,2,2.2,5
2014/2/18 0:55,1.2,8,1.3,2,1.3,5
2014/2/18 0:56,1.3,7,1.3,3,2.4,7
2014/2/18 0:57,1.2,6,1.3,4,1.4,7
2014/2/18 0:58,1,5,1.1,5,0.9,14
2014/2/18 0:59,1,4,1,6,1.9,16
2014/2/18 1:00,1.1,4,1.1,7,3.9,5
2014/2/18 1:01,1.2,4,1.2,8,4.2,2
2014/2/18 1:02,1.4,4,1.4,4,7.2,1
2014/2/18 1:03,1.6,3,1.6,3,5.6,2
2014/2/18 1:04,1.7,2,1.7,3,3.8,1
2014/2/18 1:05,1.7,3,1.7,3,3,7
2014/2/18 1:06,1.7,2,1.7,3,2,3
2014/2/18 1:07,1.7,2,1.7,3,1.4,4
2014/2/18 1:08,1.8,2,1.8,2,2.2,4
2014/2/18 1:09,1.9,2,1.9,2,3.6,15
2014/2/18 1:10,1.8,2,1.9,2,3.1,16
2014/2/18 1:11,1.7,2,1.8,2,1.6,16
2014/2/18 1:12,1.4,2,1.6,2,2.7,3
2014/2/18 1:13,1.5,2,1.5,2,7.2,1
2014/2/18 1:14,1.7,2,1.7,2,6.9,1
2014/2/18 1:15,1.9,2,1.9,2,5,2
2014/2/18 1:16,1.9,2,1.9,2,2.9,2
2014/2/18 1:17,2.1,1,2.1,1,5,1
2014/2/18 1:18,2.3,2,2.3,2,5.2,2
2014/2/18 1:19,2.4,2,2.4,2,3.7,3
2014/2/18 1:20,2.5,2,2.5,2,3.2,3
2014/2/18 1:21,2.6,2,2.6,2,2.5,3
2014/2/18 1:22,2.6,2,2.7,2,3.6,3
2014/2/18 1:23,2.5,2,2.6,2,5,2
2014/2/18 1:24,2.2,2,2.4,2,2.5,16
2014/2/18 1:25,2.2,2,2.2,2,7.5,1
2014/2/18 1:26,2.3,2,2.3,2,7.1,16
2014/2/18 1:27,2.4,2,2.5,2,5.7,16
2014/2/18 1:28,2.3,2,2.5,2,4.2,15
2014/2/18 1:29,2.3,2,2.4,2,3.1,15
2014/2/18 1:30,2.3,1,2.3,2,4.7,1
2014/2/18 1:31,2.3,1,2.3,2,6.5,16
2014/2/18 1:32,2.3,1,2.4,2,3.6,16
2014/2/18 1:33,2.4,1,2.4,2,5.8,4
2014/2/18 1:34,2.8,1,2.8,1,9.1,5
2014/2/18 1:35,3.1,1,3.1,1,9.3,3
2014/2/18 1:36,3.3,1,3.3,1,9.3,2
2014/2/18 1:37,3.5,1,3.5,1,9.3,2
2014/2/18 1:38,3.7,1,3.7,1,8.3,1
2014/2/18 1:39,4.1,1,4.1,1,8.9,2
2014/2/18 1:40,4.3,1,4.3,1,9.5,2
2014/2/18 1:41,4.6,2,4.6,2,7.2,1
2014/2/18 1:42,4.9,2,4.9,2,6.3,4
2014/2/18 1:43,5,2,5.1,2,8.2,1
2014/2/18 1:44,4.9,2,5,2,9.3,16
2014/2/18 1:45,5,2,5,2,10.9,3
2014/2/18 1:46,5,2,5,2,10,2
2014/2/18 1:47,4.8,2,4.9,2,8.1,16
2014/2/18 1:48,4.7,2,4.8,2,6.3,1
2014/2/18 1:49,4.5,2,4.7,2,5,1
2014/2/18 1:50,4.3,2,4.4,2,6.8,16
2014/2/18 1:51,4.3,2,4.3,2,8.9,1
2014/2/18 1:52,4.2,1,4.3,2,8.1,2
2014/2/18 1:53,4,1,4.1,2,4.9,2
2014/2/18 1:54,4.2,1,4.2,2,11.8,1
2014/2/18 1:55,4.1,1,4.3,2,8.4,3
2014/2/18 1:56,4,1,4.1,2,7.5,16
2014/2/18 1:57,3.8,1,4,2,4.9,15
2014/2/18 1:58,3.6,1,3.8,2,5.5,1
2014/2/18 1:59,3.7,1,3.7,2,5.7,16
2014/2/18 2:00,3.6,1,3.7,2,4.2,2
2014/2/18 2:01,3.6,1,3.6,1,7.6,2
2014/2/18 2:02,3.5,1,3.6,1,6,1
2014/2/18 2:03,3.4,2,3.5,1,3.1,4
2014/2/18 2:04,3,2,3.4,1,4.4,3
2014/2/18 2:05,2.8,2,3,1,5,1
2014/2/18 2:06,2.6,2,2.8,1,4.7,1
2014/2/18 2:07,2.6,2,2.7,1,5.2,3
2014/2/18 2:08,2.7,2,2.7,1,9.5,2
2014/2/18 2:09,2.9,2,2.9,1,10.2,2
2014/2/18 2:10,3,2,3,1,7.8,4
2014/2/18 2:11,3,3,3.2,1,7.9,4
2014/2/18 2:12,2.8,3,3,1,2.5,4
2014/2/18 2:13,2.9,3,2.9,2,2.6,15
2014/2/18 2:14,2.8,3,2.8,3,4.2,5
2014/2/18 2:15,2.8,3,2.8,3,3.5,1
2014/2/18 2:16,2.7,3,2.7,3,3.1,2
2014/2/18 2:17,2.6,3,2.7,3,2.2,3
2014/2/18 2:18,2.5,3,2.6,3,3.1,5
2014/2/18 2:19,2.3,4,2.4,3,5.5,5
2014/2/18 2:20,2.3,4,2.3,3,6.2,5
2014/2/18 2:21,2.1,4,2.3,3,4.4,5
2014/2/18 2:22,2.2,4,2.2,3,5.5,6
2014/2/18 2:23,2.4,4,2.4,3,4.3,6
2014/2/18 2:24,2.4,5,2.4,3,4.2,6
2014/2/18 2:25,2.5,5,2.5,3,5,6
2014/2/18 2:26,2.6,5,2.6,3,4.9,6
2014/2/18 2:27,2.8,5,2.8,5,6.2,3
2014/2/18 2:28,2.9,5,2.9,5,2.9,4
2014/2/18 2:29,2.9,5,2.9,5,3.8,6
2014/2/18 2:30,2.8,5,2.9,5,5.1,5
2014/2/18 2:31,2.7,5,2.8,5,3.5,1
2014/2/18 2:32,2.9,5,2.9,5,6.2,1
2014/2/18 2:33,2.9,4,2.9,5,6.1,16
2014/2/18 2:34,2.8,4,2.9,5,2.9,1
2014/2/18 2:35,2.5,4,2.7,5,2.9,8
2014/2/18 2:36,2.3,4,2.5,5,2.7,4
2014/2/18 2:37,2.3,4,2.4,5,5.7,5
2014/2/18 2:38,2.4,4,2.4,5,4.4,5
2014/2/18 2:39,2.5,4,2.5,5,6.8,5
2014/2/18 2:40,2.8,4,2.8,5,7.2,3
2014/2/18 2:41,2.8,4,2.8,5,6,5
2014/2/18 2:42,2.8,4,2.9,5,5.8,5
2014/2/18 2:43,2.8,4,2.9,4,4.7,3
2014/2/18 2:44,2.8,4,2.8,4,2.4,4
2014/2/18 2:45,2.7,4,2.8,4,2.1,7
2014/2/18 2:46,2.7,4,2.7,4,2.5,16
2014/2/18 2:47,2.6,4,2.7,4,3.9,16
2014/2/18 2:48,2.4,3,2.5,4,1.9,15
2014/2/18 2:49,2.1,3,2.4,4,1.6,16
2014/2/18 2:50,1.7,3,2.1,4,2.4,6
2014/2/18 2:51,1.6,3,1.7,4,2.5,6
2014/2/18 2:52,1.4,3,1.5,4,3.6,3
2014/2/18 2:53,1.3,3,1.4,4,3,3
2014/2/18 2:54,1.5,3,1.5,4,5.7,1
2014/2/18 2:55,1.6,2,1.6,4,6.3,16
2014/2/18 2:56,1.8,3,1.8,4,3.8,2
2014/2/18 2:57,1.7,3,1.8,4,2.9,3
2014/2/18 2:58,1.8,3,1.8,3,5,4
2014/2/18 2:59,2,3,2,3,4.7,3
2014/2/18 3:00,2.1,3,2.1,3,3,3
2014/2/18 3:01,2.1,2,2.1,3,1.4,2
2014/2/18 3:02,2,2,2.1,3,3,16
2014/2/18 3:03,2.1,2,2.1,3,4.8,4
2014/2/18 3:04,2,2,2.2,2,3.5,5
2014/2/18 3:05,2.1,2,2.1,2,4.7,3
2014/2/18 3:06,2,3,2.1,2,3.9,3
2014/2/18 3:07,2,2,2,2,1.9,3
2014/2/18 3:08,1.9,2,2,2,2.9,2
2014/2/18 3:09,1.9,2,1.9,2,4.7,1
2014/2/18 3:10,2.1,2,2.1,2,6.8,3
2014/2/18 3:11,2.2,2,2.2,2,4.2,1
2014/2/18 3:12,2.3,3,2.3,3,4.7,3
2014/2/18 3:13,2.1,3,2.3,3,1.9,3
2014/2/18 3:14,2,3,2.1,3,1.4,6
2014/2/18 3:15,1.9,2,2,3,5.1,15
2014/2/18 3:16,2,2,2,3,4.8,15
2014/2/18 3:17,2,1,2,3,2.9,15
2014/2/18 3:18,1.9,1,2,3,2,14
2014/2/18 3:19,1.7,1,1.9,3,1,14
2014/2/18 3:20,1.4,16,1.7,3,3.8,10
2014/2/18 3:21,1.5,1,1.5,3,3.6,4
2014/2/18 3:22,1.7,16,1.7,3,6.7,16
2014/2/18 3:23,1.8,16,1.8,3,5,16
2014/2/18 3:24,2.2,1,2.2,1,5.4,5
2014/2/18 3:25,2.2,2,2.2,1,5.5,2
2014/2/18 3:26,2.4,2,2.4,2,6.7,2
2014/2/18 3:27,2.5,3,2.5,2,3.7,3
2014/2/18 3:28,2.8,3,2.8,3,5,3
2014/2/18 3:29,2.9,3,2.9,3,3.1,3
2014/2/18 3:30,3.3,3,3.3,3,8.5,3
2014/2/18 3:31,3.4,3,3.4,3,6.5,3
2014/2/18 3:32,3.3,3,3.4,3,4.1,5
2014/2/18 3:33,3.3,3,3.3,3,7.6,5
2014/2/18 3:34,3.3,3,3.4,3,6.8,5
2014/2/18 3:35,3.3,4,3.3,3,6.1,5
2014/2/18 3:36,3.2,4,3.3,3,5.5,5
2014/2/18 3:37,3.5,4,3.5,4,5.8,5
2014/2/18 3:38,3.4,4,3.4,4,5.4,5
2014/2/18 3:39,3.6,5,3.6,5,6.9,5
2014/2/18 3:40,3.5,5,3.7,5,7.4,4
2014/2/18 3:41,3.6,5,3.6,5,8.6,4
2014/2/18 3:42,3.9,5,3.9,5,10,1
2014/2/18 3:43,4.1,4,4.1,4,10.7,2
2014/2/18 3:44,4,4,4.1,4,4.3,16
2014/2/18 3:45,3.8,4,3.9,4,2.5,1
2014/2/18 3:46,3.6,3,3.7,4,3.6,2
2014/2/18 3:47,3.5,3,3.6,4,6.5,15
2014/2/18 3:48,3.4,2,3.5,4,4.8,9
2014/2/18 3:49,3.2,2,3.4,4,2.5,10
2014/2/18 3:50,2.9,2,3.2,4,2.7,3
2014/2/18 3:51,2.7,2,2.9,4,6.3,16
2014/2/18 3:52,2.4,2,2.7,4,5.6,2
2014/2/18 3:53,2.1,2,2.4,4,5.5,1
2014/2/18 3:54,2.1,2,2.2,4,4.3,1
2014/2/18 3:55,2.2,2,2.2,3,3.1,2
2014/2/18 3:56,2.3,3,2.3,3,4.5,3
2014/2/18 3:57,2.2,3,2.3,3,4.3,2
2014/2/18 3:58,2.4,2,2.4,2,5.5,3
2014/2/18 3:59,2.7,2,2.7,2,7.6,3
2014/2/18 4:00,2.8,3,2.8,2,4.4,5
2014/2/18 4:01,2.7,3,2.8,3,6.4,6
2014/2/18 4:02,2.8,3,2.9,3,5.1,4
2014/2/18 4:03,2.7,3,2.8,3,2.2,3
2014/2/18 4:04,2.6,3,2.7,3,3.2,14
2014/2/18 4:05,2.7,3,2.7,3,6.7,3
2014/2/18 4:06,2.8,3,2.8,3,8.3,1
2014/2/18 4:07,3,3,3,3,7.5,2
2014/2/18 4:08,3.1,3,3.1,3,6.5,5
2014/2/18 4:09,3,3,3.1,3,7.1,5
2014/2/18 4:10,3.1,3,3.1,3,7.5,4
2014/2/18 4:11,3.4,3,3.4,3,7.6,3
2014/2/18 4:12,3.7,3,3.7,3,8.7,3
2014/2/18 4:13,4.1,3,4.1,3,7.7,4
2014/2/18 4:14,4.2,3,4.2,3,6,2
2014/2/18 4:15,4.5,3,4.5,3,11.5,1
2014/2/18 4:16,4.5,3,4.5,3,6.3,2
2014/2/18 4:17,4.2,4,4.4,3,4.5,4
2014/2/18 4:18,4.3,4,4.3,3,7.7,3
2014/2/18 4:19,4.3,4,4.3,3,6.2,3
2014/2/18 4:20,4.2,3,4.3,3,5.8,3
2014/2/18 4:21,4.3,3,4.3,3,9.4,1
2014/2/18 4:22,4.4,3,4.4,3,11,4
2014/2/18 4:23,4.4,3,4.4,3,10.5,2
2014/2/18 4:24,4.7,3,4.7,3,9.1,1
2014/2/18 4:25,4.5,3,4.7,3,4.7,4
2014/2/18 4:26,4.3,3,4.5,3,3,9
2014/2/18 4:27,4.2,3,4.3,3,3.8,7
2014/2/18 4:28,3.8,3,4.2,3,1.9,16
2014/2/18 4:29,3.7,2,3.8,3,4.7,15
2014/2/18 4:30,3.7,2,3.7,3,6.7,1
2014/2/18 4:31,3.5,1,3.7,3,6.8,14
2014/2/18 4:32,3.1,1,3.5,3,4.8,15
2014/2/18 4:33,2.6,1,3.1,3,3.1,9
2014/2/18 4:34,2.4,1,2.6,3,8.1,14
2014/2/18 4:35,2.5,16,2.5,3,7.8,13
2014/2/18 4:36,2.5,15,2.5,3,3.5,11
2014/2/18 4:37,2.5,16,2.5,3,3.5,16
2014/2/18 4:38,2.6,16,2.6,3,4.4,16
2014/2/18 4:39,2.5,1,2.6,2,2.9,2
2014/2/18 4:40,2.4,1,2.5,2,3.2,3
2014/2/18 4:41,2.1,2,2.4,1,4.4,5
2014/2/18 4:42,2.4,3,2.4,1,6,5
2014/2/18 4:43,2.4,3,2.4,1,3.2,6
2014/2/18 4:44,2.2,4,2.4,16,3.6,9
2014/2/18 4:45,1.8,5,2.2,16,0.8,15
2014/2/18 4:46,1.8,5,1.8,16,2,10
2014/2/18 4:47,1.8,6,1.8,16,4.1,9
2014/2/18 4:48,1.8,7,1.8,16,5,9
2014/2/18 4:49,2.1,8,2.1,1,8.7,9
2014/2/18 4:50,2.3,9,2.3,1,7,14
2014/2/18 4:51,2.2,10,2.3,3,4.2,11
2014/2/18 4:52,2,11,2.2,3,4.2,11
2014/2/18 4:53,2.2,11,2.2,3,7.7,3
2014/2/18 4:54,2.6,12,2.6,12,8.1,2
2014/2/18 4:55,3.1,12,3.1,12,10.1,15
2014/2/18 4:56,3.2,13,3.2,13,6.5,16
2014/2/18 4:57,3.7,14,3.7,14,9.3,1
2014/2/18 4:58,3.7,15,3.7,14,5.1,1
2014/2/18 4:59,3.5,16,3.7,14,5,2
2014/2/18 5:00,3.8,16,3.8,16,14.7,15
2014/2/18 5:01,4.1,1,4.1,1,11.3,14
2014/2/18 5:02,4.1,1,4.2,1,6.8,16
2014/2/18 5:03,4.1,1,4.3,1,6.3,3
2014/2/18 5:04,3.8,1,4.1,1,4.8,8
2014/2/18 5:05,3.6,16,3.8,1,4.8,14
2014/2/18 5:06,3.8,1,3.8,1,9,16
2014/2/18 5:07,3.3,16,3.7,1,5.4,2
2014/2/18 5:08,3.4,1,3.4,1,6.2,1
2014/2/18 5:09,3.5,16,3.5,1,7,3
2014/2/18 5:10,3.2,16,3.5,1,7.4,15
2014/2/18 5:11,3.1,1,3.1,1,9.5,1
2014/2/18 5:12,3.4,1,3.4,1,13,2
2014/2/18 5:13,3.9,1,3.9,1,12.5,1
2014/2/18 5:14,4.2,1,4.2,1,8.9,16
2014/2/18 5:15,4.2,1,4.2,1,6.7,15
2014/2/18 5:16,3.8,1,4.2,1,2.2,5
2014/2/18 5:17,3.8,1,3.8,1,4.9,10
2014/2/18 5:18,3.8,2,3.8,1,5.5,4
2014/2/18 5:19,3.7,2,3.9,1,4.1,1
2014/2/18 5:20,3.6,1,3.7,1,6,16
2014/2/18 5:21,3.5,2,3.6,1,5.5,2
2014/2/18 5:22,3.3,2,3.4,1,7.4,3
2014/2/18 5:23,2.9,3,3.2,1,7.7,3
2014/2/18 5:24,2.7,3,2.9,1,7.5,1
2014/2/18 5:25,2.8,3,2.8,1,7.2,4
2014/2/18 5:26,2.9,3,2.9,2,3.8,1
2014/2/18 5:27,3.4,3,3.4,2,14.7,16
2014/2/18 5:28,3.7,2,3.7,2,10.8,16
2014/2/18 5:29,4.1,2,4.1,2,9,1
2014/2/18 5:30,4.2,2,4.2,2,4.8,14
2014/2/18 5:31,4.1,2,4.2,2,4.1,6
2014/2/18 5:32,4,2,4.1,2,5.1,7
2014/2/18 5:33,3.8,2,4,2,4.2,6
2014/2/18 5:34,3.6,2,3.8,2,2.4,7
2014/2/18 5:35,3.5,3,3.6,2,4.2,6
2014/2/18 5:36,3.6,3,3.6,2,7.6,3
2014/2/18 5:37,3.1,3,3.6,2,4.5,3
2014/2/18 5:38,3.1,4,3.2,2,7.2,3
2014/2/18 5:39,2.8,4,3,2,7.8,3
2014/2/18 5:40,2.6,5,2.8,2,3.8,6
2014/2/18 5:41,2.6,4,2.7,2,2.6,4
2014/2/18 5:42,2.5,4,2.6,2,4.1,5
2014/2/18 5:43,2.5,4,2.5,2,3.1,16
2014/2/18 5:44,2.6,4,2.6,2,5.5,1
2014/2/18 5:45,2.5,3,2.6,3,4.7,2
2014/2/18 5:46,2.5,3,2.5,3,5.2,3
2014/2/18 5:47,2.6,3,2.6,3,4.7,2
2014/2/18 5:48,2.5,3,2.6,4,5.5,1
2014/2/18 5:49,2.7,3,2.7,4,10,4
2014/2/18 5:50,2.8,3,2.8,3,6.5,4
2014/2/18 5:51,2.8,3,2.9,3,3.1,8
2014/2/18 5:52,2.8,3,2.8,3,5.4,2
2014/2/18 5:53,2.7,3,2.8,3,3.9,4
2014/2/18 5:54,2.7,3,2.7,3,5.5,7
2014/2/18 5:55,2.7,3,2.7,3,4.8,7
2014/2/18 5:56,2.6,3,2.7,3,5.2,5
2014/2/18 5:57,2.9,4,2.9,3,7.9,5
2014/2/18 5:58,3,4,3,4,7.1,3
2014/2/18 5:59,2.9,4,3.1,4,6.9,3
2014/2/18 6:00,3,4,3,4,7.4,3
2014/2/18 6:01,3.2,4,3.2,4,5.6,5
2014/2/18 6:02,3.3,4,3.3,4,5,5
2014/2/18 6:03,3.4,4,3.4,4,5.1,4
2014/2/18 6:04,3.5,4,3.5,4,4.4,3
2014/2/18 6:05,3.7,4,3.7,4,6.3,4
2014/2/18 6:06,4,4,4,4,6.8,5
2014/2/18 6:07,3.8,4,4,4,5.5,4
2014/2/18 6:08,3.7,4,3.8,4,6.1,2
2014/2/18 6:09,3.7,4,3.7,4,4.3,4
2014/2/18 6:10,3.4,4,3.6,4,3.8,7
2014/2/18 6:11,3.2,4,3.4,4,2.1,2
2014/2/18 6:12,3.1,4,3.1,4,4.7,4
2014/2/18 6:13,3,4,3.1,4,3.5,4
2014/2/18 6:14,3,4,3,4,5.2,5
2014/2/18 6:15,2.8,4,3,4,7.8,3
2014/2/18 6:16,2.5,4,2.8,4,4.5,2
2014/2/18 6:17,2.4,4,2.5,4,4.9,5
2014/2/18 6:18,2.5,3,2.5,4,6.1,3
2014/2/18 6:19,2.5,3,2.5,4,6.3,2
2014/2/18 6:20,2.5,3,2.6,4,4.9,1
2014/2/18 6:21,2.8,3,2.8,4,6.3,3
2014/2/18 6:22,3,3,3,4,5.6,4
2014/2/18 6:23,3,3,3,4,4.4,4
2014/2/18 6:24,3.1,3,3.2,3,5.7,3
2014/2/18 6:25,3.3,3,3.3,3,5.8,3
2014/2/18 6:26,3.4,3,3.5,3,7.5,2
2014/2/18 6:27,3.3,3,3.4,3,4.1,15
2014/2/18 6:28,3.3,3,3.4,3,7.5,2
2014/2/18 6:29,3.2,3,3.3,3,5.1,2
2014/2/18 6:30,3.2,3,3.2,3,6.2,2
2014/2/18 6:31,3.2,3,3.2,3,6,1
2014/2/18 6:32,3.1,2,3.2,3,6.9,2
2014/2/18 6:33,3.2,2,3.2,3,6.5,3
2014/2/18 6:34,3.1,2,3.2,3,5.8,16
2014/2/18 6:35,3.1,2,3.1,3,6.3,16
2014/2/18 6:36,3,1,3.1,3,4.2,16
2014/2/18 6:37,3.2,1,3.2,3,8.9,16
2014/2/18 6:38,3,1,3.2,3,3.5,16
2014/2/18 6:39,3.3,1,3.3,1,11.8,2
2014/2/18 6:40,3.5,1,3.5,1,11.4,2
2014/2/18 6:41,3.7,1,3.7,1,6.5,3
2014/2/18 6:42,3.7,1,3.7,1,6.2,2
2014/2/18 6:43,3.6,1,3.7,1,4.8,3
2014/2/18 6:44,3.5,1,3.6,1,2.7,1
2014/2/18 6:45,3.2,2,3.4,1,2,1
2014/2/18 6:46,3.3,2,3.3,1,7.6,8
2014/2/18 6:47,3.1,2,3.2,1,4.8,5
2014/2/18 6:48,3.2,3,3.2,1,5.7,5
2014/2/18 6:49,3,3,3.3,1,4.8,5
2014/2/18 6:50,2.5,4,3,1,2,5
2014/2/18 6:51,2.2,3,2.5,1,2.5,16
2014/2/18 6:52,1.9,3,2.1,1,3.1,16
2014/2/18 6:53,1.9,3,1.9,1,3.6,14
2014/2/18 6:54,2,3,2,1,5.5,14
2014/2/18 6:55,2.2,2,2.2,2,7,16
2014/2/18 6:56,2.2,1,2.2,3,5,16
2014/2/18 6:57,2.3,16,2.3,3,6.5,16
2014/2/18 6:58,2.2,16,2.4,3,4.3,3
2014/2/18 6:59,2.3,16,2.3,3,7.4,3
2014/2/18 7:00,2.6,16,2.6,16,7,6
2014/2/18 7:01,2.9,1,2.9,1,8.3,3
2014/2/18 7:02,3,1,3,1,7.9,2
2014/2/18 7:03,3.1,1,3.1,1,4.2,3
2014/2/18 7:04,3.1,2,3.1,1,4.7,2
2014/2/18 7:05,3.1,2,3.1,1,6,1
2014/2/18 7:06,3,2,3.1,1,4.8,16
2014/2/18 7:07,2.8,2,3,1,3.2,16
2014/2/18 7:08,2.9,2,2.9,1,3,1
2014/2/18 7:09,2.6,2,2.8,1,3,2
2014/2/18 7:10,2.4,1,2.6,1,3,16
2014/2/18 7:11,2.1,1,2.4,1,1,9
2014/2/18 7:12,1.8,1,2.1,1,0.9,8
2014/2/18 7:13,1.8,16,1.8,2,4.8,14
2014/2/18 7:14,2,16,2,2,5.6,13
2014/2/18 7:15,2,15,2,2,4.8,13
2014/2/18 7:16,2,15,2,2,3.9,13
2014/2/18 7:17,2.1,15,2.1,2,4.1,16
2014/2/18 7:18,2.2,15,2.2,2,4.8,4
2014/2/18 7:19,2.3,15,2.3,2,4.2,2
2014/2/18 7:20,2.2,15,2.3,1,3.1,1
2014/2/18 7:21,2.3,15,2.3,15,1,12
2014/2/18 7:22,2.5,15,2.5,15,3.7,7
2014/2/18 7:23,2.6,15,2.6,15,5.4,4
2014/2/18 7:24,2.5,2,2.6,15,6.1,4
2014/2/18 7:25,2.6,3,2.6,15,7,3
2014/2/18 7:26,2.5,4,2.5,15,3.7,5
2014/2/18 7:27,2.5,4,2.5,15,3.1,5
2014/2/18 7:28,2.4,4,2.5,15,3.7,2
2014/2/18 7:29,2.4,4,2.4,15,3.5,2
2014/2/18 7:30,2.4,4,2.4,15,4.3,16
2014/2/18 7:31,2.4,4,2.4,15,1.8,5
2014/2/18 7:32,2.4,4,2.5,15,3.3,5
2014/2/18 7:33,2.3,4,2.4,16,4.3,8
2014/2/18 7:34,2.2,4,2.3,3,5.6,7
2014/2/18 7:35,2.1,4,2.2,3,3.9,16
2014/2/18 7:36,2,4,2.1,4,5.1,4
2014/2/18 7:37,2.1,4,2.1,4,4.3,3
2014/2/18 7:38,2.1,4,2.1,4,3.2,3
2014/2/18 7:39,2,4,2.1,4,2.4,4
2014/2/18 7:40,2,4,2,4,2,4
2014/2/18 7:41,1.9,4,2,4,1,2
2014/2/18 7:42,1.9,4,1.9,4,4.3,1
2014/2/18 7:43,1.9,3,2,4,4.2,1
2014/2/18 7:44,1.8,2,1.9,4,2.5,15
2014/2/18 7:45,1.8,2,1.8,4,5.1,1
2014/2/18 7:46,1.8,2,1.9,4,5.2,1
2014/2/18 7:47,1.7,1,1.8,4,3.2,13
2014/2/18 7:48,1.6,1,1.7,4,3.1,13
2014/2/18 7:49,1.6,16,1.6,4,1.6,12
2014/2/18 7:50,1.6,16,1.6,4,3,12
2014/2/18 7:51,1.7,15,1.7,3,3,12
2014/2/18 7:52,1.8,14,1.8,3,5.7,7
2014/2/18 7:53,1.7,14,1.8,3,4.5,8
2014/2/18 7:54,1.7,13,1.7,2,1.3,11
2014/2/18 7:55,1.8,12,1.8,2,6.1,8
2014/2/18 7:56,1.8,10,1.8,2,5.8,9
2014/2/18 7:57,1.9,9,1.9,10,4.2,9
2014/2/18 7:58,1.8,9,1.9,10,2.7,8
2014/2/18 7:59,1.9,9,1.9,10,3.7,10
2014/2/18 8:00,1.9,9,2,9,3.9,9
2014/2/18 8:01,2,9,2,9,3.6,12
2014/2/18 8:02,1.9,10,2,9,3.9,9
2014/2/18 8:03,1.8,10,1.9,9,3.5,8
2014/2/18 8:04,1.8,10,1.8,9,1.5,8
2014/2/18 8:05,1.5,10,1.8,9,1.9,8
2014/2/18 8:06,1.4,10,1.5,9,3,9
2014/2/18 8:07,1.4,10,1.5,9,3.7,9
2014/2/18 8:08,1.5,10,1.5,9,3.6,9
2014/2/18 8:09,1.6,10,1.6,9,3.9,10
2014/2/18 8:10,1.6,10,1.6,9,4.4,9
2014/2/18 8:11,1.6,9,1.6,9,3.6,10
2014/2/18 8:12,1.5,9,1.6,10,3.9,10
2014/2/18 8:13,1.4,9,1.5,10,1,11
2014/2/18 8:14,1.4,9,1.4,10,2.1,5
2014/2/18 8:15,1.4,8,1.4,10,1.5,5
2014/2/18 8:16,1.4,8,1.4,10,1.9,3
2014/2/18 8:17,1.3,7,1.3,10,1.5,16
2014/2/18 8:18,1.3,6,1.3,10,5.5,14
2014/2/18 8:19,1.4,3,1.4,10,4.5,16
2014/2/18 8:20,1.5,2,1.5,10,4.7,14
2014/2/18 8:21,1.5,2,1.5,9,4.7,16
2014/2/18 8:22,1.4,2,1.5,9,3.5,3
2014/2/18 8:23,1.6,2,1.6,2,3.2,5
2014/2/18 8:24,1.8,2,1.8,2,4.3,16
2014/2/18 8:25,2.1,1,2.1,1,4.7,14
2014/2/18 8:26,2.2,16,2.2,1,3.6,14
2014/2/18 8:27,2.2,16,2.2,1,1.9,14
2014/2/18 8:28,2.1,16,2.2,1,2,16
2014/2/18 8:29,2,1,2.1,1,2.7,3
2014/2/18 8:30,1.9,1,2,1,4.3,5
2014/2/18 8:31,2.2,2,2.2,1,7.8,6
2014/2/18 8:32,2.2,2,2.2,1,4.7,6
2014/2/18 8:33,2.2,1,2.2,1,5,14
2014/2/18 8:34,2.4,2,2.4,1,5.8,5
2014/2/18 8:35,2.7,3,2.7,3,10.3,6
2014/2/18 8:36,2.6,3,2.7,3,5.4,3
2014/2/18 8:37,2.9,4,2.9,4,5.8,1
2014/2/18 8:38,3.2,4,3.2,4,11.9,2
2014/2/18 8:39,3.3,4,3.3,4,5.7,5
2014/2/18 8:40,3.7,4,3.7,4,9.4,5
2014/2/18 8:41,4,4,4,4,8.2,5
2014/2/18 8:42,4.2,4,4.2,4,7.9,3
2014/2/18 8:43,4.4,4,4.4,4,6.8,4
2014/2/18 8:44,4.5,4,4.5,4,7.4,4
2014/2/18 8:45,4.1,4,4.4,4,4.4,2
2014/2/18 8:46,4.1,3,4.1,4,5,15
2014/2/18 8:47,3.8,3,4,4,1.8,10
2014/2/18 8:48,3.5,4,3.8,4,3,6
2014/2/18 8:49,3.5,4,3.5,4,4.2,7
2014/2/18 8:50,3,5,3.5,4,2.6,7
2014/2/18 8:51,2.6,5,3,4,2.7,11
2014/2/18 8:52,2.3,7,2.6,4,3.7,9
2014/2/18 8:53,2.1,8,2.3,4,4.9,8
2014/2/18 8:54,1.9,8,2.1,4,4.7,7
2014/2/18 8:55,1.9,8,1.9,3,4.7,5
2014/2/18 8:56,2,8,2,3,5.5,8
2014/2/18 8:57,2.2,8,2.2,3,4.1,7
2014/2/18 8:58,2.2,8,2.3,4,3.6,8
2014/2/18 8:59,2.1,8,2.2,4,2.6,9
2014/2/18 9:00,2.2,8,2.2,5,3.8,9
2014/2/18 9:01,2.2,8,2.2,5,2.6,12
2014/2/18 9:02,2.2,8,2.2,7,3.9,10
2014/2/18 9:03,2.2,8,2.2,8,4.7,9
2014/2/18 9:04,2.4,9,2.4,9,3.9,10
2014/2/18 9:05,2.3,9,2.3,9,3.9,9
2014/2/18 9:06,2.3,9,2.4,9,6.3,9
2014/2/18 9:07,2.1,10,2.3,9,3.6,9
2014/2/18 9:08,2.1,10,2.1,9,5,9
2014/2/18 9:09,2.1,10,2.1,9,2.7,6
2014/2/18 9:10,2,10,2.1,9,1.3,7
2014/2/18 9:11,2,10,2,9,4.1,13
2014/2/18 9:12,1.9,10,2,9,1.5,8
2014/2/18 9:13,1.7,9,1.9,9,2,4
2014/2/18 9:14,1.5,9,1.7,9,1.9,8
2014/2/18 9:15,1.5,9,1.5,9,2.2,9
2014/2/18 9:16,1.3,9,1.5,9,1.8,11
2014/2/18 9:17,1.3,9,1.3,10,1.8,10
2014/2/18 9:18,1.3,9,1.3,10,4.3,14
2014/2/18 9:19,1.3,10,1.3,10,2.6,1
2014/2/18 9:20,1.4,10,1.4,10,2,1
2014/2/18 9:21,1.3,7,1.4,10,1.3,16
2014/2/18 9:22,1.2,6,1.3,10,0.8,6
2014/2/18 9:23,1.2,1,1.2,9,3.7,16
2014/2/18 9:24,1.3,16,1.3,9,4.7,16
2014/2/18 9:25,1.4,16,1.4,9,5.5,14
2014/2/18 9:26,1.8,15,1.8,15,6.9,14
2014/2/18 9:27,2,16,2,16,6.2,16
2014/2/18 9:28,2.1,16,2.1,16,7.5,16
2014/2/18 9:29,2.2,16,2.2,16,5.4,6
2014/2/18 9:30,2.3,15,2.3,16,5.8,7
2014/2/18 9:31,2.4,14,2.4,14,2.6,5
2014/2/18 9:32,2.5,14,2.5,14,2.7,6
2014/2/18 9:33,2.6,14,2.6,14,5.6,1
2014/2/18 9:34,2.6,5,2.6,14,3.1,4
2014/2/18 9:35,2.5,7,2.6,14,3.7,6
2014/2/18 9:36,2.1,7,2.5,14,1.9,11
2014/2/18 9:37,1.9,7,2.1,14,2.1,8
2014/2/18 9:38,1.9,8,1.9,14,4.9,10
2014/2/18 9:39,2.1,9,2.1,14,5.2,12
2014/2/18 9:40,2.1,10,2.1,14,4.9,12
2014/2/18 9:41,2.2,11,2.2,14,3.7,11
2014/2/18 9:42,2.2,11,2.2,14,2,6
2014/2/18 9:43,2.1,11,2.2,15,2.6,7
2014/2/18 9:44,2.1,11,2.1,6,3.6,9
2014/2/18 9:45,2,11,2,7,2.7,8
2014/2/18 9:46,2,10,2,10,2.5,8
2014/2/18 9:47,2.1,10,2.1,10,3.1,8
2014/2/18 9:48,1.9,10,2.1,10,1.6,9
2014/2/18 9:49,1.6,10,1.9,10,3,6
2014/2/18 9:50,1.6,9,1.6,10,5.8,6
2014/2/18 9:51,1.6,8,1.6,11,5.8,4
2014/2/18 9:52,1.9,7,1.9,11,7.6,5
2014/2/18 9:53,2,7,2,11,5.7,3
2014/2/18 9:54,2.1,6,2.1,10,5.6,16
2014/2/18 9:55,2.2,5,2.2,5,5.5,3
2014/2/18 9:56,2.2,4,2.3,5,2.9,5
2014/2/18 9:57,2.2,4,2.2,5,3.5,10
2014/2/18 9:58,2.3,4,2.3,5,5.2,8
2014/2/18 9:59,2.5,5,2.5,5,3.6,8
2014/2/18 10:00,2.3,4,2.5,5,2.2,5
2014/2/18 10:01,2.1,5,2.2,5,1.6,9
2014/2/18 10:02,1.8,5,2,5,1.1,8
2014/2/18 10:03,1.7,6,1.8,5,2.4,7
2014/2/18 10:04,1.5,7,1.7,5,2.5,6
2014/2/18 10:05,1.3,8,1.5,5,1.1,8
2014/2/18 10:06,1.2,7,1.3,5,1.4,4
2014/2/18 10:07,1.2,8,1.2,5,3.6,8
2014/2/18 10:08,1.1,8,1.2,5,3.6,9
2014/2/18 10:09,0.9,8,1.1,5,1.1,9
2014/2/18 10:10,0.9,9,0.9,4,2.6,10
2014/2/18 10:11,1,8,1,5,4.1,9
2014/2/18 10:12,1.2,9,1.2,5,4.1,12
2014/2/18 10:13,1.1,10,1.2,6,2.5,9
2014/2/18 10:14,1.1,10,1.2,7,2.4,10
2014/2/18 10:15,1.4,10,1.4,10,4.9,14
2014/2/18 10:16,1.5,11,1.5,10,3.3,14
2014/2/18 10:17,1.5,11,1.5,10,1.4,10
2014/2/18 10:18,1.4,11,1.5,10,1.6,9
2014/2/18 10:19,1.4,11,1.4,10,1.9,2
2014/2/18 10:20,1.6,11,1.6,11,6.5,8
2014/2/18 10:21,1.8,10,1.8,11,9.7,8
2014/2/18 10:22,1.9,9,1.9,10,6.5,7
2014/2/18 10:23,2,8,2,9,3.9,6
2014/2/18 10:24,2,7,2,9,2.1,7
2014/2/18 10:25,1.9,7,2,9,3.5,8
2014/2/18 10:26,1.9,6,1.9,9,2.4,7
2014/2/18 10:27,2,7,2,9,2.1,9
2014/2/18 10:28,2.1,6,2.1,6,2.5,5
2014/2/18 10:29,2.3,6,2.3,6,3.3,4
2014/2/18 10:30,2.4,6,2.4,6,6.7,5
2014/2/18 10:31,2.1,6,2.4,6,5.1,4
2014/2/18 10:32,1.9,6,2.1,6,2,9
2014/2/18 10:33,1.8,6,1.9,6,2.5,6
2014/2/18 10:34,1.9,6,1.9,6,2.2,4
2014/2/18 10:35,1.8,5,1.9,6,2.1,1
2014/2/18 10:36,1.8,4,1.8,6,1.8,1
2014/2/18 10:37,1.7,3,1.7,6,1.4,15
2014/2/18 10:38,1.6,3,1.7,6,2.1,3
2014/2/18 10:39,1.6,3,1.6,6,2.7,3
2014/2/18 10:40,1.4,3,1.6,6,3.6,8
2014/2/18 10:41,1.3,2,1.4,6,3.1,8
2014/2/18 10:42,1.3,2,1.3,6,2.6,5
2014/2/18 10:43,1.3,2,1.3,6,2.6,4
2014/2/18 10:44,1.2,2,1.3,6,1.3,3
2014/2/18 10:45,1.2,1,1.2,5,2.7,15
2014/2/18 10:46,1.2,1,1.2,4,2.2,14
2014/2/18 10:47,1.2,1,1.2,3,2.1,13
2014/2/18 10:48,1.3,15,1.3,3,5,13
2014/2/18 10:49,1.4,13,1.4,3,5.1,12
2014/2/18 10:50,1.3,13,1.4,3,2,9
2014/2/18 10:51,1.4,12,1.4,15,2.6,5
2014/2/18 10:52,1.4,13,1.4,15,2.2,4
2014/2/18 10:53,1.5,12,1.5,12,2.7,6
2014/2/18 10:54,1.5,11,1.5,12,1.6,9
2014/2/18 10:55,1.5,10,1.5,12,1.6,16
2014/2/18 10:56,1.6,10,1.6,10,4.5,15
2014/2/18 10:57,1.7,9,1.7,9,4.8,12
2014/2/18 10:58,1.8,9,1.8,9,5.7,11
2014/2/18 10:59,1.6,8,1.8,9,2.2,14
2014/2/18 11:00,1.9,9,1.9,9,8.1,13
2014/2/18 11:01,2.1,15,2.1,16,7,16
2014/2/18 11:02,2.4,14,2.4,14,5.8,14
2014/2/18 11:03,2.5,14,2.5,14,5.2,14
2014/2/18 11:04,2.7,14,2.7,14,5.8,15
2014/2/18 11:05,3.1,14,3.1,14,11.3,15
2014/2/18 11:06,3.6,14,3.6,14,13,15
2014/2/18 11:07,3.9,15,3.9,15,11.5,15
2014/2/18 11:08,4.3,15,4.3,15,13.6,14
2014/2/18 11:09,4.5,15,4.5,15,6.3,15
2014/2/18 11:10,4.6,15,4.7,15,8.3,15
2014/2/18 11:11,4.8,15,4.8,15,8.1,15
2014/2/18 11:12,4.6,15,4.8,15,6.3,16
2014/2/18 11:13,4.8,15,4.8,15,6.8,15
2014/2/18 11:14,4.6,15,4.8,15,4.9,1
2014/2/18 11:15,4.7,15,4.7,15,8.2,15
2014/2/18 11:16,4.4,15,4.7,15,5.6,15
2014/2/18 11:17,4.2,15,4.4,15,4.8,15
2014/2/18 11:18,3.6,15,4.1,15,2.6,2
2014/2/18 11:19,3.5,15,3.5,15,4.3,3
2014/2/18 11:20,3.2,16,3.5,15,6.3,3
2014/2/18 11:21,2.8,16,3.1,15,3.2,5
2014/2/18 11:22,2.7,16,2.8,15,5.1,14
2014/2/18 11:23,2.6,16,2.7,15,5.4,13
2014/2/18 11:24,2.5,16,2.6,15,3.1,12
2014/2/18 11:25,2.1,16,2.5,15,2.6,16
2014/2/18 11:26,2,16,2.1,15,5.4,16
2014/2/18 11:27,1.9,16,2,15,4.8,1
2014/2/18 11:28,1.9,15,1.9,15,4.3,16
2014/2/18 11:29,2,15,2,16,6.9,16
2014/2/18 11:30,2.5,15,2.5,16,9.4,16
2014/2/18 11:31,2.7,15,2.7,16,6.3,16
2014/2/18 11:32,3,15,3,15,7.6,15
2014/2/18 11:33,3,15,3,15,7.8,14
2014/2/18 11:34,3.3,16,3.3,16,8.7,16
2014/2/18 11:35,3.4,16,3.4,16,6.3,15